Powrót do katalogu

COSMOS 970 DEB

AktywnyLEO
NORAD 10566·DEBRIS·🇷🇺 Russia

Wystrzelony Dec 21, 1977 z Baikonur Cosmodrome

Loading…

Następne Przeloty (najbliższe 24 godziny)

TLE

ŚwieżeSource: Space-Track

Epoka: Sep 13, 2026, 19:01 UTC

1 10566U 77121H   26256.79284689  .00000270  00000-0  48766-3 0  9993
2 10566  65.7690  34.7868 0409874 218.3043 138.8224 13.26643336340723

Śledź COSMOS 970 DEB w czasie rzeczywistym z AllMySat

Download on the App Store